Location: Baix
(44.7118°N, 4.7648°E)
Time: 03:34:28
(UTC+00:00)

Cosmos 2227 Rocket - Pass Details

Date: 07 August 2020
Orbit: 841 x 843 km, 71.0° (Epoch: 27 September)

Event Time Altitude Azimuth Distance (km) Brightness Sun altitude
Exits shadow 01:33:50 61° 188° (S) 956 2.1 -24.3°
Maximum altitude 01:34:51 82° 114° (ESE) 857 2.1 -24.2°
Drops below altitude 10° 01:40:32 10° 27° (NNE) 2,471 5.7 -23.7°
Sets 01:43:00 0° 27° (NNE) 3,409 6.8 -23.5°
